Weather reports worldwide

Advertisment
Chateauroux, France (7354): temperature & dewpoint: 08.07.2020 12:00:00 - 14.07.2020 12:00:00 (CEST)Chateauroux, France (7354): temperature 5cm: 08.07.2020 12:00:00 - 14.07.2020 12:00:00 (CEST)Chateauroux, France (7354): temperature -20cm & temperature -100cm: 08.07.2020 12:00:00 - 14.07.2020 12:00:00 (CEST)Chateauroux, France (7354): wind speed & gusts: 08.07.2020 12:00:00 - 14.07.2020 12:00:00 (CEST)Chateauroux, France (7354): wind direction: 08.07.2020 12:00:00 - 14.07.2020 12:00:00 (CEST)Chateauroux, France (7354): reduced air pressure: 08.07.2020 12:00:00 - 14.07.2020 12:00:00 (CEST)Chateauroux, France (7354): visibility: 08.07.2020 12:00:00 - 14.07.2020 12:00:00 (CEST)Chateauroux, France (7354): sunshine duration: 08.07.2020 12:00:00 - 14.07.2020 12:00:00 (CEST)Chateauroux, France (7354): precipitation: 08.07.2020 12:00:00 - 14.07.2020 12:00:00 (CEST)
Date & Time tt [°C] td [°C] tt 5cm [°C] tt -20cm [°C] tt -100cm [°C] ff [km/h] ff [kn] fx [km/h] fx [kn] dd ppp [hPa] vv [km] sd [min] rr [mm]
14.07.2020 12:00:00 22,6 8,7 26,1 18,9 17,3 6 3 20 11 WNW 1018,1 45 36 0,0
14.07.2020 11:00:00 21,7 9,2 24,6 18,8 17,3 4 2 17 9 NNW 1018,3 38 42 0,0
14.07.2020 10:00:00 19,4 9,0 18,4 18,8 17,3 6 3 14 8 N 1018,6 55 26 0,0
14.07.2020 09:00:00 17,5 8,9 17,1 18,9 17,3 7 4 13 7 NW 1018,9 60 1 0,0
14.07.2020 08:00:00 16,1 9,0 14,8 19,0 17,3 4 2 8 4 WNW 1018,9 60 0 0,0
14.07.2020 07:00:00 15,5 8,9 13,4 19,1 17,3 5 3 13 7 NNW 1019,0 60 2 0,0
14.07.2020 06:00:00 15,0 8,7 9,9 19,3 17,3 8 5 13 7 N 1019,0 60 0 0,0
14.07.2020 05:00:00 14,1 7,8 9,8 19,5 17,3 0 0 12 7 N 1019,0 60 0 0,0
14.07.2020 04:00:00 14,2 7,7 11,2 19,7 17,3 8 4 21 11 N 1019,3 18 0 0,0
14.07.2020 03:00:00 15,5 7,8 13,3 19,9 17,3 12 6 22 12 N 1019,2 60 0 0,0
14.07.2020 02:00:00 15,9 7,4 13,0 20,0 17,3 15 8 21 11 NNW 1019,6 60 0 0,0
14.07.2020 01:00:00 16,1 6,8 11,7 20,2 17,3 14 8 18 10 NNW 1019,9 60 0 0,0
14.07.2020 00:00:00 17,2 7,3 12,8 20,4 17,3 13 7 17 9 NW 1020,0 58 0 0,0
13.07.2020 23:00:00 17,9 7,9 13,6 20,6 17,3 11 6 14 8 NW 1020,0 15 0 0,0
13.07.2020 22:00:00 21,2 6,7 16,2 20,7 17,3 10 5 20 11 NNW 1019,7 38 18 0,0
13.07.2020 21:00:00 24,4 6,6 23,6 20,6 17,3 15 8 25 13 NNW 1019,3 46 60 0,0
13.07.2020 20:00:00 26,0 6,6 26,5 20,5 17,3 17 9 26 14 NW 1019,3 60 41 0,0
13.07.2020 19:00:00 26,8 6,8 29,6 20,4 17,3 9 5 31 17 NW 1019,4 33 60 0,0
13.07.2020 18:00:00 27,3 6,1 31,5 20,1 17,3 12 7 29 16 N 1019,5 36 60 0,0
13.07.2020 17:00:00 27,3 5,0 32,2 19,8 17,3 15 8 31 17 NNW 1020,0 53 60 0,0
13.07.2020 16:00:00 27,9 7,2 33,0 19,5 17,3 11 6 31 17 NNE 1020,4 52 60 0,0
13.07.2020 15:00:00 26,7 6,1 33,1 19,2 17,3 18 10 32 17 NNW 1020,9 49 60 0,0
13.07.2020 14:00:00 26,5 7,0 32,2 18,9 17,3 11 6 31 17 NNW 1021,3 54 60 0,0
13.07.2020 13:00:00 26,0 6,6 32,4 18,6 17,3 14 7 35 19 NNW 1021,7 58 60 0,0
13.07.2020 12:00:00 24,8 7,4 31,5 18,4 17,3 14 8 27 14 NNW 1022,1 57 60 0,0
13.07.2020 11:00:00 24,1 8,1 27,7 18,3 17,3 11 6 21 12 N 1022,2 20 60 0,0
13.07.2020 10:00:00 21,7 8,6 24,7 18,3 17,3 11 6 20 11 NE 1022,5 47 60 0,0
13.07.2020 09:00:00 18,7 9,2 20,1 18,4 17,3 13 7 23 12 NNE 1022,7 33 60 0,0
13.07.2020 08:00:00 16,1 8,6 15,5 18,6 17,3 14 7 23 12 NNE 1022,8 22 60 0,0
13.07.2020 07:00:00 13,7 8,1 11,6 18,7 17,3 14 7 20 11 N 1022,5 15 22 0,0
13.07.2020 06:00:00 13,2 7,6 11,2 18,9 17,3 14 8 23 12 N 1022,2 60 0 0,0
13.07.2020 05:00:00 13,6 7,6 10,9 19,0 17,3 16 9 21 12 N 1021,9 60 0 0,0
13.07.2020 04:00:00 14,3 7,3 12,2 19,2 17,3 18 10 22 12 N 1022,0 60 0 0,0
13.07.2020 03:00:00 15,1 7,4 12,2 19,3 17,3 18 10 22 12 N 1022,1 60 0 0,0
13.07.2020 02:00:00 15,2 7,2 11,4 19,5 17,3 18 10 21 12 N 1022,4 60 0 0,0
13.07.2020 01:00:00 15,4 7,4 12,0 19,7 17,3 13 7 18 10 NNE 1022,6 53 0 0,0
13.07.2020 00:00:00 16,6 7,2 13,6 19,8 17,3 15 8 21 11 NNE 1022,4 60 0 0,0
12.07.2020 23:00:00 18,1 7,2 13,2 19,9 17,3 13 7 15 8 N 1022,1 60 0 0,0
12.07.2020 22:00:00 19,6 6,7 15,2 19,9 17,3 13 7 19 10 N 1021,5 60 17 0,0
12.07.2020 21:00:00 23,1 6,4 21,4 19,9 17,3 15 8 30 16 NNE 1021,1 58 55 0,0
12.07.2020 20:00:00 25,9 4,9 27,3 19,8 17,3 19 10 32 18 NNE 1020,8 48 60 0,0
12.07.2020 19:00:00 26,6 5,5 29,1 19,7 17,3 19 10 38 21 NE 1020,8 60 60 0,0
12.07.2020 18:00:00 27,0 5,3 30,3 19,5 17,3 16 9 38 20 ENE 1021,1 60 60 0,0
12.07.2020 17:00:00 26,6 6,1 29,8 19,3 17,3 22 12 38 20 NE 1021,4 40 57 0,0
12.07.2020 16:00:00 25,9 4,9 30,2 19,0 17,3 16 9 39 21 NNE 1022,4 41 60 0,0
12.07.2020 15:00:00 26,4 5,3 31,5 18,7 17,3 17 9 44 24 NE 1023,0 44 60 0,0
12.07.2020 14:00:00 25,1 6,3 29,5 18,4 17,3 22 12 40 22 NNE 1023,2 44 60 0,0
12.07.2020 13:00:00 24,3 5,6 28,8 18,3 17,3 21 11 38 21 ENE 1023,4 20 60 0,0
12.07.2020 12:00:00 23,9 5,7 27,4 18,1 17,3 20 11 41 22 NE 1023,5 40 60 0,0
12.07.2020 11:00:00 22,4 7,0 25,3 18,1 17,3 22 12 35 19 NE 1024,1 30 60 0,0
12.07.2020 10:00:00 20,3 8,0 22,0 18,1 17,3 18 10 31 17 NE 1024,5 19 60 0,0
12.07.2020 09:00:00 17,8 7,8 18,6 18,2 17,3 16 9 27 14 NE 1024,6 18 60 0,0
12.07.2020 08:00:00 14,6 7,9 12,5 18,4 17,3 16 8 22 12 NNE 1024,5 19 60 0,0
12.07.2020 07:00:00 10,8 6,9 6,1 18,6 17,3 15 8 20 11 NNE 1024,3 19 23 0,0
12.07.2020 06:00:00 9,2 5,6 6,0 18,7 17,3 12 7 19 10 NNE 1024,3 60 0 0,0
12.07.2020 05:00:00 11,0 5,7 6,4 18,9 17,3 15 8 24 13 NNE 1024,0 60 0 0,0
12.07.2020 04:00:00 10,6 5,1 7,4 19,1 17,3 9 5 20 11 ENE 1024,1 60 0 0,0
12.07.2020 03:00:00 13,8 5,7 11,2 19,2 17,3 14 7 25 14 NE 1024,0 60 0 0,0
12.07.2020 02:00:00 15,3 5,8 13,2 19,4 17,3 16 9 26 14 NE 1023,9 60 0 0,0
12.07.2020 01:00:00 14,9 6,2 11,1 19,6 17,3 15 8 27 14 NE 1024,2 60 0 0,0
12.07.2020 00:00:00 15,2 6,2 11,8 19,7 17,3 16 9 26 14 NNE 1024,2 60 0 0,0
11.07.2020 23:00:00 15,2 6,5 11,9 19,8 17,3 15 8 23 13 NNE 1024,2 58 0 0,0
11.07.2020 22:00:00 19,6 6,0 17,6 19,9 17,3 16 9 27 14 NE 1023,4 60 18 0,0
11.07.2020 21:00:00 22,2 6,4 21,1 19,9 17,3 16 9 25 13 NE 1023,0 55 60 0,0
11.07.2020 20:00:00 23,6 4,5 24,7 19,9 17,3 18 10 29 16 NNE 1022,8 60 60 0,0
11.07.2020 19:00:00 24,5 5,8 27,3 19,7 17,3 18 10 39 21 NE 1022,7 39 60 0,0
11.07.2020 18:00:00 24,7 6,0 28,5 19,6 17,3 15 8 33 18 NE 1022,8 45 60 0,0
11.07.2020 17:00:00 24,4 6,2 29,4 19,4 17,3 21 11 35 19 NE 1023,0 38 60 0,0
11.07.2020 16:00:00 23,8 7,4 29,3 19,1 17,3 15 8 41 22 NNE 1023,3 37 60 0,0
11.07.2020 15:00:00 23,6 5,9 29,8 18,8 17,3 15 8 36 20 NE 1023,8 38 60 0,0
11.07.2020 14:00:00 22,3 4,8 28,8 18,6 17,3 18 10 35 19 NNE 1024,3 38 60 0,0
11.07.2020 13:00:00 21,4 5,3 28,5 18,3 17,3 16 9 30 16 NNW 1024,5 40 60 0,0
11.07.2020 12:00:00 20,6 7,9 27,2 18,2 17,3 12 7 29 16 N 1024,5 31 60 0,0
11.07.2020 11:00:00 19,0 7,4 24,8 18,2 17,3 13 7 26 14 NNE 1024,6 27 60 0,0
11.07.2020 10:00:00 18,0 8,3 20,0 18,2 17,3 14 7 26 14 NNE 1024,7 28 60 0,0
11.07.2020 09:00:00 15,8 7,5 17,7 18,3 17,3 17 9 32 17 NNE 1024,4 37 60 0,0
11.07.2020 08:00:00 13,4 8,2 12,6 18,4 17,3 10 5 18 10 NNE 1024,3 30 60 0,0
11.07.2020 07:00:00 10,3 7,4 6,9 18,6 17,3 9 5 15 8 NNE 1024,0 22 24 0,0
11.07.2020 06:00:00 9,4 6,8 7,2 18,8 17,3 12 6 16 9 N 1023,5 60 0 0,0
11.07.2020 05:00:00 10,1 6,8 7,0 19,0 17,3 11 6 15 8 N 1023,1 60 0 0,0
11.07.2020 04:00:00 10,8 7,1 7,3 19,1 17,3 11 6 18 10 NNE 1022,9 60 0 0,0
11.07.2020 03:00:00 11,6 8,1 8,4 19,3 17,3 14 7 20 11 N 1022,7 60 0 0,0
11.07.2020 02:00:00 12,0 8,8 8,5 19,5 17,2 12 7 16 8 NNE 1022,3 60 0 0,0
11.07.2020 01:00:00 13,4 10,6 8,6 19,6 17,2 14 8 18 10 NNW 1021,9 59 0 0,0
11.07.2020 00:00:00 14,5 11,1 9,7 19,8 17,3 4 2 5 3 WNW 1021,3 60 0 0,0
10.07.2020 23:00:00 17,0 11,0 12,5 19,8 17,2 2 1 3 2 S 1020,8 60 0 0,0
10.07.2020 22:00:00 18,6 10,4 17,8 19,9 17,2 3 1 16 9 NE 1019,8 18 0 0,0
10.07.2020 21:00:00 19,1 10,1 18,8 20,0 17,2 - - 31 17 - - 60 0 0,0
10.07.2020 20:00:00 19,6 10,8 19,7 20,0 17,2 24 13 39 21 N 1019,0 45 0 0,0
10.07.2020 19:00:00 21,2 12,3 21,7 19,9 17,2 19 11 31 17 NNW 1018,2 40 0 0,0
10.07.2020 18:00:00 22,0 12,3 23,3 19,9 17,2 17 9 33 18 NW 1018,1 60 13 0,0
10.07.2020 17:00:00 22,9 13,1 23,9 19,7 17,2 14 7 30 16 NW 1018,0 53 5 0,0
10.07.2020 16:00:00 22,7 13,5 25,1 19,6 17,2 18 10 32 17 WNW 1018,2 59 27 0,0
10.07.2020 15:00:00 22,1 12,9 24,6 19,6 17,2 14 8 36 19 W 1018,3 60 12 0,0
10.07.2020 14:00:00 21,0 13,4 21,4 19,6 17,2 16 8 29 16 W 1018,7 60 1 0,0
10.07.2020 13:00:00 20,0 13,0 20,7 19,6 17,2 16 9 36 20 W 1018,5 56 0 0,0
10.07.2020 12:00:00 21,1 13,3 19,8 19,6 17,2 16 9 30 16 WNW 1018,0 45 27 0,0
10.07.2020 11:00:00 18,1 13,4 17,9 19,6 17,2 19 10 32 18 W 1018,1 49 0 0,0
10.07.2020 10:00:00 18,0 15,8 16,9 19,6 17,2 17 9 24 13 WSW 1017,8 9 0 0,0
10.07.2020 09:00:00 17,2 15,2 16,8 19,7 17,2 18 10 29 16 W 1017,6 5 0 0,0
10.07.2020 08:00:00 16,7 15,7 16,3 19,8 17,2 13 7 27 15 W 1017,1 13 0 0,0
10.07.2020 07:00:00 17,2 14,7 16,8 19,9 17,2 15 8 35 19 WSW 1017,0 60 0 0,0
10.07.2020 06:00:00 16,9 14,9 15,8 20,0 17,1 17 9 26 14 WSW 1016,6 41 0 0,0
10.07.2020 05:00:00 16,3 14,3 14,4 20,2 17,2 16 9 29 16 W 1016,2 58 0 0,0
10.07.2020 04:00:00 16,5 12,6 14,0 20,4 17,1 13 7 22 12 WSW 1016,0 60 0 0,0
10.07.2020 03:00:00 18,1 12,5 14,5 20,6 17,1 12 6 24 13 WSW 1016,0 60 0 0,0
10.07.2020 02:00:00 18,3 12,5 15,9 20,8 17,1 12 7 18 10 WSW 1015,8 60 0 0,0
10.07.2020 01:00:00 19,6 12,6 17,0 20,9 17,1 13 7 17 9 WSW 1015,5 60 0 0,0
10.07.2020 00:00:00 21,3 13,0 17,9 21,0 17,1 11 6 19 10 WSW 1015,3 60 0 0,0
09.07.2020 23:00:00 24,0 12,9 22,0 21,1 17,2 16 9 25 13 WSW 1014,8 60 0 0,0
09.07.2020 22:00:00 26,1 13,2 24,0 21,1 17,1 14 8 29 16 W 1014,0 60 21 0,0
09.07.2020 21:00:00 28,7 12,6 27,5 21,2 17,1 20 11 32 18 W 1013,5 52 60 0,0
09.07.2020 20:00:00 30,5 13,3 31,3 21,0 17,1 20 11 35 19 WSW 1013,4 51 60 0,0
09.07.2020 19:00:00 31,4 11,2 33,3 20,9 17,1 22 12 35 19 W 1013,5 43 60 0,0
09.07.2020 18:00:00 31,8 11,6 35,3 20,7 17,1 19 11 36 19 WSW 1013,8 40 60 0,0
09.07.2020 17:00:00 32,2 12,4 36,5 20,4 17,1 19 11 40 22 SW 1014,4 40 60 0,0
09.07.2020 16:00:00 31,7 10,4 37,0 20,2 17,1 19 10 35 19 SW 1014,9 52 60 0,0
09.07.2020 15:00:00 31,5 9,1 36,8 19,8 17,1 13 7 28 15 SW 1015,2 59 60 0,0
09.07.2020 14:00:00 30,8 12,2 36,9 19,5 17,1 10 5 30 16 SW 1015,9 20 60 0,0
09.07.2020 13:00:00 29,9 12,8 36,1 19,2 17,1 9 5 23 12 SSW 1016,2 20 60 0,0
09.07.2020 12:00:00 28,5 12,0 34,7 19,0 17,1 6 4 18 10 SW 1016,6 52 60 0,0
09.07.2020 11:00:00 27,7 12,5 31,8 18,8 17,1 5 3 13 7 S 1016,7 20 60 0,0
09.07.2020 10:00:00 25,2 14,3 27,5 18,8 17,1 6 4 15 8 SE 1017,0 34 60 0,0
09.07.2020 09:00:00 22,4 14,3 24,7 18,9 17,1 5 3 12 7 E 1017,0 42 60 0,0
09.07.2020 08:00:00 18,6 14,5 17,4 19,0 17,1 3 2 9 5 SE 1017,4 44 60 0,0
09.07.2020 07:00:00 13,7 12,1 9,6 19,1 17,1 4 2 7 4 N 1017,7 47 23 0,0
09.07.2020 06:00:00 13,6 11,6 9,3 19,3 17,1 2 1 7 4 SSW 1017,7 59 0 0,0
09.07.2020 05:00:00 13,3 11,7 9,6 19,5 17,1 2 1 5 3 NNE 1017,6 60 0 0,0
09.07.2020 04:00:00 14,1 11,6 10,0 19,7 17,1 3 1 7 4 NNW 1017,8 57 0 0,0
09.07.2020 03:00:00 14,1 11,4 11,0 19,9 17,1 4 2 13 7 NNE 1018,2 60 0 0,0
09.07.2020 02:00:00 15,2 11,8 11,7 20,0 17,1 2 1 5 3 WNW 1018,4 60 0 0,0
09.07.2020 01:00:00 16,4 12,0 12,0 20,2 17,1 0 0 6 3 N 1018,3 55 0 0,0
09.07.2020 00:00:00 18,0 12,0 13,0 20,3 17,1 2 1 7 4 ENE 1018,1 52 0 0,0
08.07.2020 23:00:00 19,2 12,5 14,0 20,4 17,1 7 4 9 5 N 1017,8 53 0 0,0
08.07.2020 22:00:00 21,9 13,0 17,8 20,5 17,1 8 4 13 7 N 1017,0 59 21 0,0
08.07.2020 21:00:00 24,7 12,6 23,0 20,5 17,1 10 6 15 8 NNW 1016,8 57 24 0,0
08.07.2020 20:00:00 27,4 11,4 28,0 20,4 17,1 11 6 22 12 NNW 1016,9 47 40 0,0
08.07.2020 19:00:00 27,5 11,5 28,5 20,2 17,1 9 5 22 12 NNW 1016,9 53 20 0,0
08.07.2020 18:00:00 28,1 10,8 30,0 20,0 17,0 10 5 23 12 NNW 1017,2 58 34 0,0
08.07.2020 17:00:00 29,3 10,9 34,9 19,7 17,0 8 4 24 13 NW 1017,7 55 60 0,0
08.07.2020 16:00:00 28,5 10,7 34,7 19,3 17,0 10 6 21 12 NNW 1018,0 20 60 0,0
08.07.2020 15:00:00 27,8 10,0 34,0 19,0 17,1 8 4 29 16 WNW 1018,4 60 60 0,0
08.07.2020 14:00:00 26,6 9,0 33,1 18,7 17,1 11 6 23 12 WNW 1018,6 59 60 0,0
08.07.2020 13:00:00 25,9 8,4 31,7 18,5 17,1 8 4 24 13 N 1019,1 45 60 0,0
08.07.2020 12:00:00 24,8 9,1 31,9 18,3 17,1 8 5 18 10 NW 1019,4 39 60 0,0

tt = temperature
td = dewpoint
tt 5cm = temperature 5cm
tt -20cm = temperature -20cm
tt -100cm = temperature -100cm
ff = wind speed
fx = gusts
dd = wind direction
ppp = reduced air pressure
vv = visibility
sd = sunshine duration
rr = precipitation

Next stations